Temp
-10 -11 -11 -11 -12 -12 -12 -12 -12 -13 -12 -13 -13 -14 -15 -15 -15 -15 -16 -16 -16 -16 -16 -16 -16 -16 -16 -16 -16 -15 -15 -14 -14 -14 -14 -14 -13 -13 -13 -12 -12 -11 -12 -12 -11
-10 -11 -11 -12 -12 -12 -12 -12 -13 -13 -13 -13 -14 -15 -15 -15 -15 -15 -16 -16 -16 -16 -16 -16 -17 -16 -17 -17 -16 -15 -14 -15 -15 -14 -14 -14 -13 -13 -14 -12 -13 -13 -11 -12 -11
-11 -11 -11 -12 -12 -12 -13 -12 -13 -13 -13 -13 -14 -15 -15 -15 -15 -16 -16 -16 -16 -16 -17 -17 -17 -17 -17 -17 -16 -15 -15 -16 -15 -14 -14 -13 -13 -14 -13 -13 -13 -12 -13 -14 -12
-11 -12 -12 -12 -12 -12 -13 -12 -13 -13 -13 -14 -15 -15 -16 -15 -16 -16 -16 -16 -16 -17 -17 -17 -17 -17 -17 -16 -16 -16 -15 -15 -14 -14 -14 -14 -14 -13 -13 -13 -12 -13 -14 -14 -14
-12 -12 -12 -12 -12 -12 -13 -12 -13 -13 -13 -14 -15 -16 -15 -15 -16 -16 -16 -16 -16 -17 -17 -17 -17 -17 -16 -16 -16 -16 -15 -16 -15 -15 -15 -14 -14 -14 -14 -12 -13 -14 -14 -15 -14
-12 -12 -12 -12 -13 -13 -13 -13 -13 -13 -13 -14 -15 -16 -15 -15 -16 -16 -16 -16 -16 -16 -17 -17 -16 -17 -18 -17 -16 -16 -16 -15 -15 -14 -14 -14 -14 -14 -12 -13 -14 -15 -14 -14 -14
-12 -12 -12 -12 -13 -12 -13 -13 -13 -13 -13 -14 -15 -15 -15 -15 -16 -16 -16 -16 -16 -17 -17 -16 -16 -16 -17 -17 -17 -16 -16 -15 -15 -15 -15 -14 -15 -15 -14 -15 -14 -14 -14 -15 -14
-12 -12 -12 -12 -12 -12 -13 -13 -13 -13 -13 -14 -15 -15 -15 -15 -16 -16 -17 -17 -17 -18 -17 -16 -16 -16 -16 -15 -16 -15 -16 -15 -15 -15 -16 -16 -15 -15 -14 -14 -14 -14 -14 -14 -15
-12 -12 -12 -12 -12 -12 -13 -13 -13 -14 -14 -14 -15 -15 -15 -15 -16 -16 -17 -18 -17 -17 -17 -16 -16 -16 -16 -16 -16 -16 -16 -15 -15 -15 -16 -16 -15 -15 -15 -15 -15 -14 -15 -15 -15
-13 -13 -12 -12 -13 -13 -13 -13 -13 -13 -14 -14 -15 -15 -15 -16 -16 -16 -17 -17 -17 -17 -17 -17 -17 -17 -16 -16 -16 -16 -16 -16 -16 -16 -15 -16 -16 -15 -15 -15 -13 -14 -14 -15 -14
-13 -13 -13 -12 -13 -13 -13 -13 -13 -13 -14 -15 -15 -15 -15 -16 -16 -16 -17 -17 -17 -17 -17 -17 -17 -16 -16 -16 -16 -16 -16 -16 -16 -16 -16 -16 -15 -15 -15 -15 -15 -15 -15 -14 -15
-13 -13 -13 -13 -13 -13 -14 -13 -13 -14 -14 -15 -15 -15 -16 -16 -16 -16 -17 -17 -17 -17 -17 -17 -16 -16 -16 -16 -16 -16 -16 -16 -16 -15 -15 -16 -16 -15 -15 -15 -15 -15 -15 -15 -15
-13 -13 -13 -13 -13 -13 -14 -13 -14 -14 -14 -15 -15 -15 -16 -16 -16 -16 -17 -17 -17 -17 -16 -16 -16 -16 -16 -16 -16 -16 -16 -15 -16 -15 -16 -16 -16 -16 -15 -15 -16 -15 -15 -15 -15
-13 -13 -13 -13 -13 -14 -14 -14 -14 -14 -15 -14 -15 -16 -16 -16 -16 -17 -17 -17 -17 -16 -16 -16 -16 -16 -16 -16 -16 -16 -15 -16 -15 -15 -15 -16 -15 -15 -16 -15 -15 -15 -15 -15 -15
-13 -13 -14 -13 -14 -14 -14 -14 -14 -15 -15 -15 -15 -15 -16 -16 -17 -16 -16 -17 -16 -17 -16 -16 -16 -16 -16 -16 -16 -16 -16 -16 -16 -16 -16 -15 -16 -15 -15 -15 -15 -16 -16 -15 -15
-14 -14 -14 -13 -14 -14 -14 -14 -14 -14 -15 -15 -15 -16 -16 -16 -16 -17 -17 -17 -17 -16 -17 -17 -16 -16 -16 -16 -16 -16 -16 -16 -16 -16 -16 -15 -15 -15 -15 -15 -16 -16 -16 -16 -15
-14 -14 -14 -14 -14 -14 -14 -14 -14 -13 -15 -16 -16 -16 -17 -17 -17 -16 -16 -16 -17 -17 -17 -16 -16 -16 -16 -16 -16 -16 -16 -16 -16 -16 -15 -15 -15 -15 -15 -15 -15 -15 -15 -15 -15
-14 -14 -14 -14 -14 -15 -14 -14 -14 -14 -15 -16 -16 -17 -17 -18 -17 -16 -16 -16 -16 -17 -17 -16 -17 -16 -16 -16 -16 -16 -16 -16 -15 -15 -15 -15 -15 -15 -15 -15 -15 -15 -15 -15 -15
-15 -14 -14 -14 -15 -15 -14 -14 -13 -15 -16 -17 -18 -18 -18 -17 -17 -16 -16 -16 -16 -16 -16 -15 -15 -15 -16 -16 -16 -16 -17 -16 -16 -16 -16 -15 -15 -15 -15 -15 -16 -15 -14 -14 -14
-15 -14 -15 -15 -16 -15 -14 -14 -14 -16 -17 -17 -18 -18 -17 -17 -17 -16 -16 -16 -16 -17 -17 -16 -16 -16 -16 -16 -16 -16 -16 -15 -16 -15 -15 -15 -15 -15 -15 -15 -15 -15 -14 -14 -15
-15 -15 -16 -16 -16 -15 -13 -14 -15 -16 -16 -17 -17 -18 -17 -17 -16 -17 -17 -16 -16 -16 -16 -17 -16 -16 -15 -15 -16 -16 -16 -15 -16 -16 -15 -15 -16 -16 -15 -15 -15 -15 -14 -14 -14
-15 -15 -16 -16 -15 -14 -14 -14 -16 -16 -16 -16 -17 -18 -17 -16 -16 -16 -17 -17 -16 -16 -16 -16 -16 -16 -15 -15 -15 -15 -16 -15 -15 -15 -15 -15 -15 -15 -15 -15 -15 -15 -15 -14 -14
-15 -16 -17 -16 -15 -14 -15 -15 -16 -16 -16 -16 -16 -17 -17 -17 -17 -16 -17 -16 -16 -16 -16 -16 -15 -16 -16 -16 -15 -15 -16 -16 -16 -15 -15 -15 -15 -15 -15 -15 -15 -15 -15 -15 -15
-15 -16 -17 -15 -15 -15 -15 -15 -16 -16 -16 -16 -16 -17 -16 -16 -16 -16 -16 -16 -16 -16 -16 -16 -16 -16 -16 -16 -17 -16 -16 -16 -16 -15 -15 -15 -15 -16 -15 -14 -14 -15 -15 -15 -15
-15 -15 -15 -14 -14 -14 -16 -16 -16 -16 -16 -17 -16 -16 -16 -16 -16 -16 -16 -15 -16 -15 -16 -16 -16 -16 -16 -17 -16 -17 -16 -16 -15 -15 -15 -15 -15 -16 -17 -16 -15 -15 -15 -15 -16
-15 -15 -14 -15 -15 -15 -15 -15 -16 -16 -16 -16 -16 -16 -16 -16 -16 -15 -16 -15 -15 -15 -15 -15 -15 -16 -15 -16 -16 -16 -15 -15 -15 -15 -15 -15 -15 -16 -15 -15 -15 -15 -16 -16 -16
-15 -14 -15 -15 -16 -16 -15 -16 -16 -16 -16 -16 -16 -16 -16 -16 -15 -15 -16 -15 -15 -15 -15 -15 -15 -15 -15 -15 -15 -15 -15 -15 -15 -15 -15 -15 -16 -16 -16 -15 -15 -16 -16 -15 -16
Height
5819 5818 5816 5815 5814 5811 5808 5804 5800 5796 5791 5786 5781 5777 5773 5769 5767 5765 5761 5759 5757 5756 5756 5757 5758 5761 5764 5769 5774 5780 5786 5793 5799 5804 5800 5799 5795 5794 5797 5797 5798 5795 5795 5800 5804
5813 5813 5811 5810 5809 5807 5803 5800 5797 5793 5787 5782 5777 5774 5769 5766 5764 5762 5758 5755 5754 5754 5754 5755 5756 5759 5763 5769 5774 5781 5789 5792 5792 5790 5793 5793 5791 5794 5796 5794 5793 5790 5790 5788 5797
5808 5807 5807 5806 5804 5801 5798 5795 5792 5788 5784 5779 5774 5772 5768 5765 5763 5760 5756 5754 5754 5754 5754 5754 5756 5759 5763 5768 5775 5781 5785 5787 5785 5786 5791 5787 5785 5792 5794 5791 5791 5791 5782 5789 5794
5801 5801 5802 5800 5799 5797 5794 5791 5788 5784 5781 5775 5771 5770 5766 5764 5761 5758 5755 5754 5754 5754 5754 5755 5757 5760 5763 5769 5775 5779 5783 5783 5785 5786 5787 5784 5790 5791 5793 5788 5788 5788 5787 5792 5792
5794 5795 5796 5795 5794 5792 5790 5787 5785 5780 5777 5772 5768 5768 5764 5763 5760 5757 5755 5754 5754 5754 5754 5754 5758 5760 5764 5769 5773 5776 5780 5784 5783 5786 5789 5787 5786 5785 5790 5790 5784 5785 5792 5792 5792
5788 5789 5791 5790 5789 5787 5785 5783 5781 5777 5773 5769 5766 5764 5762 5761 5759 5756 5754 5753 5753 5753 5754 5755 5758 5759 5761 5769 5772 5775 5778 5781 5784 5787 5786 5785 5788 5784 5784 5787 5787 5788 5791 5793 5792
5781 5783 5784 5784 5783 5782 5780 5779 5776 5774 5770 5766 5763 5762 5760 5760 5757 5755 5753 5753 5751 5751 5754 5755 5758 5761 5764 5767 5772 5774 5778 5781 5783 5785 5786 5785 5786 5790 5788 5787 5790 5792 5792 5792 5792
5775 5776 5778 5778 5777 5776 5776 5774 5772 5770 5767 5763 5761 5760 5759 5758 5756 5755 5752 5752 5752 5751 5753 5755 5758 5761 5765 5767 5770 5774 5778 5780 5782 5784 5789 5791 5789 5789 5788 5789 5790 5791 5790 5791 5791
5768 5770 5771 5771 5772 5770 5770 5769 5768 5766 5763 5761 5760 5759 5757 5757 5755 5753 5753 5753 5753 5754 5754 5756 5759 5762 5765 5770 5772 5776 5779 5779 5782 5783 5788 5789 5788 5789 5789 5788 5789 5790 5790 5789 5791
5760 5763 5765 5765 5765 5765 5765 5764 5763 5762 5760 5757 5758 5759 5756 5757 5754 5753 5754 5754 5756 5756 5757 5759 5761 5764 5766 5768 5773 5777 5779 5780 5783 5784 5788 5790 5787 5790 5792 5786 5763 5789 5790 5789 5791
5753 5756 5759 5760 5759 5760 5761 5759 5761 5760 5756 5755 5756 5754 5754 5755 5754 5754 5755 5756 5757 5759 5760 5761 5763 5764 5767 5769 5773 5778 5782 5784 5786 5787 5788 5789 5788 5789 5791 5789 5789 5791 5789 5789 5790
5745 5749 5753 5753 5754 5754 5755 5753 5755 5755 5752 5752 5752 5752 5752 5753 5753 5754 5756 5757 5759 5760 5761 5763 5763 5766 5768 5770 5773 5778 5782 5786 5787 5786 5788 5791 5789 5790 5790 5789 5790 5788 5789 5789 5789
5736 5741 5744 5748 5748 5749 5750 5749 5750 5750 5749 5750 5750 5750 5750 5752 5751 5753 5755 5757 5760 5761 5760 5760 5763 5765 5769 5772 5773 5780 5783 5784 5786 5785 5786 5787 5789 5788 5788 5788 5787 5787 5787 5786 5787
5727 5732 5736 5740 5744 5744 5744 5745 5746 5746 5745 5747 5747 5746 5747 5748 5749 5751 5753 5757 5760 5760 5760 5760 5763 5766 5770 5773 5776 5775 5778 5781 5780 5783 5784 5786 5786 5780 5781 5786 5785 5784 5784 5785 5784
5718 5723 5727 5732 5737 5737 5742 5740 5741 5742 5742 5741 5743 5742 5743 5745 5746 5747 5752 5752 5756 5760 5759 5761 5765 5767 5770 5771 5774 5774 5776 5779 5782 5784 5785 5783 5785 5781 5782 5782 5784 5785 5785 5784 5782
5707 5713 5719 5725 5728 5732 5732 5734 5736 5738 5737 5737 5736 5739 5738 5739 5742 5745 5749 5753 5755 5758 5759 5760 5761 5766 5768 5771 5773 5774 5776 5777 5779 5782 5782 5780 5778 5779 5777 5778 5779 5780 5782 5782 5781
5697 5704 5710 5715 5719 5724 5726 5729 5731 5730 5735 5735 5735 5735 5736 5737 5740 5743 5747 5749 5753 5757 5758 5763 5765 5765 5768 5770 5772 5773 5773 5776 5778 5778 5779 5780 5779 5780 5775 5774 5771 5775 5779 5779 5778
5686 5694 5699 5705 5713 5715 5718 5723 5724 5729 5730 5731 5732 5732 5734 5737 5739 5741 5744 5748 5752 5755 5759 5761 5763 5765 5767 5770 5768 5768 5772 5774 5772 5773 5776 5774 5778 5778 5774 5767 5766 5765 5770 5773 5772
5676 5683 5691 5696 5704 5708 5713 5715 5720 5725 5728 5729 5730 5731 5734 5738 5739 5741 5743 5746 5751 5755 5757 5755 5754 5754 5761 5764 5767 5768 5770 5772 5769 5766 5771 5774 5775 5777 5773 5773 5773 5769 5770 5770 5769
5663 5674 5682 5686 5693 5699 5705 5710 5717 5720 5722 5726 5728 5730 5734 5737 5737 5739 5742 5746 5749 5752 5755 5748 5751 5756 5758 5760 5764 5764 5765 5768 5768 5767 5768 5771 5773 5769 5769 5770 5771 5768 5768 5767 5767
5652 5661 5668 5675 5683 5689 5695 5705 5712 5713 5718 5720 5724 5728 5732 5734 5735 5738 5743 5746 5746 5748 5750 5753 5749 5753 5755 5758 5760 5761 5762 5763 5764 5765 5764 5767 5770 5768 5767 5767 5767 5766 5765 5764 5764
5641 5649 5655 5663 5673 5682 5689 5700 5706 5708 5713 5716 5718 5726 5729 5734 5734 5736 5738 5742 5743 5745 5747 5749 5750 5752 5754 5753 5757 5757 5758 5759 5760 5763 5761 5762 5766 5764 5765 5764 5764 5762 5760 5759 5759
5630 5636 5643 5654 5663 5674 5685 5693 5697 5702 5707 5712 5717 5720 5725 5729 5732 5733 5736 5735 5739 5742 5744 5745 5747 5748 5750 5751 5753 5754 5756 5757 5756 5757 5758 5760 5763 5760 5761 5760 5759 5759 5757 5753 5752
5612 5621 5632 5644 5659 5668 5678 5685 5690 5696 5703 5708 5713 5717 5721 5724 5727 5730 5731 5733 5736 5737 5740 5741 5743 5744 5747 5749 5749 5749 5750 5752 5753 5754 5756 5756 5758 5756 5754 5753 5754 5754 5752 5749 5746
5596 5613 5628 5639 5649 5661 5670 5678 5684 5690 5697 5701 5708 5713 5718 5721 5724 5726 5727 5729 5731 5733 5735 5736 5738 5740 5741 5744 5744 5746 5747 5748 5749 5751 5751 5755 5753 5755 5752 5747 5744 5744 5742 5744 5740
5592 5607 5621 5632 5646 5657 5665 5670 5679 5686 5694 5699 5704 5710 5714 5717 5720 5721 5722 5723 5725 5727 5728 5730 5732 5734 5737 5738 5738 5740 5742 5744 5746 5746 5747 5749 5748 5749 5743 5743 5741 5739 5736 5733 5731
5582 5599 5611 5622 5635 5646 5657 5666 5673 5682 5690 5696 5702 5707 5710 5711 5715 5715 5718 5719 5720 5722 5723 5725 5727 5729 5731 5732 5733 5736 5740 5740 5741 5742 5743 5743 5744 5741 5736 5732 5734 5733 5727 5722 5721
Wind_Speed
33 33 31 31 31 30 33 34 36 35 35 36 33 31 28 20 20 22 27 21 20 14 12 8 9 13 18 19 29 28 22 19 9 8 30 31 37 28 20 25 22 27 27 25 17
33 33 31 31 33 32 32 33 35 35 35 35 33 26 22 18 19 25 18 18 16 9 9 10 8 13 17 19 29 26 15 14 22 27 36 33 24 12 20 24 24 23 17 12 12
33 33 31 31 33 32 32 33 33 33 34 33 30 26 22 18 23 16 17 12 6 5 4 5 9 9 16 21 26 25 25 4 21 28 22 13 8 10 15 19 21 13 14 6 5
33 31 29 31 32 31 33 33 32 31 31 29 28 27 19 19 23 20 11 8 8 6 5 6 10 9 16 22 23 26 22 6 17 11 7 3 16 13 12 21 14 3 12 6 9
33 31 29 31 33 30 31 32 29 29 30 28 29 26 15 19 20 17 10 8 8 6 8 6 11 14 17 21 21 24 21 16 10 13 11 20 18 18 10 7 16 8 6 4 6
33 30 29 31 32 30 30 30 28 27 28 28 29 19 13 19 19 17 11 10 9 9 7 7 15 19 18 12 15 24 21 20 18 18 14 17 14 5 8 3 4 7 4 4 4
34 31 29 30 30 29 30 26 26 26 27 27 23 13 12 16 17 19 13 8 18 15 8 7 17 17 23 17 16 19 19 17 18 15 17 4 5 4 2 1 3 2 2 2 3
34 31 26 28 27 29 29 23 24 24 26 26 18 12 12 16 18 24 10 7 1 4 9 7 12 19 17 22 16 15 9 11 13 14 11 10 7 7 4 2 4 5 1 1 2
34 30 26 27 27 27 28 21 23 24 24 24 16 13 12 16 18 19 4 3 6 5 8 14 16 19 19 21 19 12 8 9 8 13 5 10 13 5 7 9 7 3 1 1 1
34 32 28 27 26 26 26 20 22 23 22 21 16 15 11 11 15 13 5 9 8 8 10 19 23 22 21 29 14 10 14 3 5 7 12 2 18 8 7 12 22 10 6 2 2
35 33 30 28 28 27 24 19 23 22 20 19 15 15 11 11 10 13 5 11 10 9 16 20 24 23 20 17 17 11 5 5 8 5 13 13 12 11 7 8 8 0 10 2 4
37 35 34 30 30 28 23 21 22 19 18 16 15 13 11 10 10 9 8 13 9 7 11 19 23 17 17 13 9 2 4 11 15 11 8 11 13 8 7 5 4 8 4 5 5
39 38 36 34 32 30 23 21 21 21 14 13 15 14 14 13 8 8 15 15 7 10 6 10 11 18 7 8 10 6 9 14 10 5 15 22 21 16 11 9 9 4 7 10 10
40 39 38 36 33 30 26 21 20 19 15 18 16 15 15 15 10 17 24 17 12 14 10 3 14 13 11 11 7 16 14 13 11 8 4 8 15 24 15 7 11 10 10 13 18
44 43 40 35 36 34 23 22 19 18 20 24 20 17 16 13 11 22 25 28 17 8 8 9 12 8 8 17 12 8 19 9 9 7 16 20 21 22 17 17 16 11 14 19 22
46 44 42 39 41 32 29 23 21 21 23 23 23 10 13 12 12 18 25 29 24 17 12 15 20 12 20 9 4 9 4 8 13 13 18 15 17 17 27 15 19 18 17 19 26
47 44 43 44 45 33 28 25 25 24 20 22 19 14 11 11 14 19 25 28 31 22 15 11 14 17 14 9 11 13 7 2 9 15 16 9 17 23 24 20 18 20 13 24 29
46 45 44 47 45 36 33 29 28 19 22 18 14 12 12 12 13 16 22 28 27 27 20 9 12 9 12 14 16 3 12 12 19 19 16 15 16 12 18 26 32 34 33 26 28
48 46 43 48 44 37 34 33 24 17 19 16 14 17 14 16 15 17 17 17 19 23 25 23 29 25 15 15 21 12 11 16 22 19 10 18 15 10 21 24 22 31 25 22 21
48 47 49 51 45 41 38 33 23 24 19 20 18 18 16 17 21 19 19 16 13 19 20 29 24 19 13 14 16 15 17 15 18 21 19 12 10 13 22 22 18 19 13 12 13
51 51 53 53 48 46 41 31 25 27 26 27 22 18 18 18 18 18 14 15 24 24 23 21 13 14 13 14 15 15 19 18 18 19 19 13 9 14 20 20 15 16 15 16 18
52 54 57 56 53 48 42 31 30 31 27 23 25 19 24 17 19 20 25 16 20 22 21 25 25 25 14 19 13 18 15 16 22 19 22 16 13 21 19 19 19 19 22 24 26
52 59 55 58 55 50 40 35 36 33 31 28 25 26 27 26 24 24 22 21 20 21 22 24 20 20 16 16 13 15 17 18 20 16 16 17 12 20 19 22 22 22 24 29 31
61 64 56 55 54 50 43 39 40 34 34 31 27 27 27 26 24 23 25 24 19 22 20 21 19 21 20 14 15 17 18 18 18 18 16 18 16 18 24 27 25 23 27 32 36
66 63 61 56 55 53 45 43 43 40 41 36 31 30 26 24 22 23 24 23 24 24 25 26 24 24 24 17 23 25 17 18 21 19 21 17 19 15 22 32 39 36 38 35 38
66 62 61 57 53 50 47 46 43 42 40 35 34 29 26 24 24 24 26 21 21 22 23 23 25 25 22 22 22 23 22 21 21 21 21 21 25 23 36 37 39 39 42 45 46
70 66 63 64 55 53 49 47 47 43 40 34 31 29 26 28 24 24 19 15 24 21 22 22 22 23 22 22 22 22 16 21 22 22 23 26 27 31 39 42 38 40 45 50 48
Wind_Direction
288 295 298 299 304 308 315 318 317 323 329 329 317 312 313 303 308 309 309 303 302 287 251 248 253 223 194 190 184 182 192 171 92 272 248 245 250 247 285 289 303 262 264 272 266
283 290 294 296 304 305 314 318 317 322 327 328 317 308 312 305 315 315 308 306 307 257 228 241 221 209 191 180 183 183 169 129 235 246 232 246 272 270 256 264 250 271 255 229 300
279 286 292 294 301 304 315 317 317 321 328 325 319 308 310 312 319 321 318 315 305 275 244 213 178 185 192 176 181 177 164 222 254 238 230 235 286 260 251 254 262 244 273 227 217
275 280 289 291 298 302 312 315 318 319 327 322 318 310 305 315 318 325 318 307 289 288 237 193 178 186 180 171 184 191 191 243 239 238 46 49 229 260 277 265 245 129 77 125 141
270 278 284 289 294 299 309 314 318 319 326 321 317 307 301 312 317 321 317 298 287 268 267 167 171 160 157 169 191 193 179 248 255 254 249 252 259 262 246 279 284 52 84 105 120
267 275 283 285 289 296 305 313 317 318 323 323 314 301 294 306 312 321 323 304 295 276 262 173 186 167 162 178 192 200 190 212 232 246 250 237 233 296 297 21 32 67 349 66 84
266 272 280 280 285 293 301 311 314 315 318 320 310 285 287 307 311 315 306 302 312 229 221 183 197 186 166 153 183 193 201 222 227 219 184 156 28 292 340 354 142 223 271 42 72
265 271 272 274 281 291 298 308 310 309 314 320 303 273 288 306 309 317 294 320 110 140 183 188 189 197 197 180 178 159 193 210 213 155 138 146 259 330 249 281 301 277 238 111 67
265 267 265 268 277 287 296 303 304 303 307 315 291 270 288 301 319 327 304 222 166 169 167 167 167 177 182 167 153 127 209 213 170 125 155 136 244 305 254 263 221 274 318 169 120
259 262 261 263 273 282 293 296 299 303 303 306 279 269 291 304 318 322 314 159 190 151 157 164 169 176 187 161 130 193 165 236 131 154 179 327 262 266 235 290 146 316 329 107 70
256 260 255 260 270 280 289 289 297 299 301 297 277 259 278 293 312 299 248 174 203 193 181 187 183 177 178 144 157 95 83 202 202 234 166 235 250 263 248 290 297 273 307 325 320
253 254 254 256 266 274 281 282 292 295 295 284 264 266 279 283 309 286 216 186 198 217 184 205 189 198 176 147 137 154 176 204 192 257 208 218 237 224 267 245 273 310 278 277 292
248 251 252 256 260 268 273 273 283 287 281 280 273 270 273 275 287 251 194 184 221 239 158 214 212 190 162 160 116 120 225 194 232 213 200 188 213 228 289 267 240 264 286 297 298
244 247 249 252 255 261 261 268 278 277 267 269 267 264 267 267 252 210 195 185 238 234 225 270 143 129 155 147 199 208 217 220 226 170 303 279 259 232 195 311 274 269 281 291 295
241 244 245 247 252 254 261 258 265 268 263 273 269 275 259 255 223 235 211 194 180 225 260 193 122 100 199 182 220 263 202 224 208 244 225 233 221 265 281 280 263 261 284 288 289
238 240 241 245 247 245 242 244 257 254 249 266 279 267 246 240 233 215 207 213 182 202 207 180 161 202 218 221 242 289 243 211 224 218 254 286 286 261 293 268 248 235 262 274 287
237 236 237 238 242 238 241 242 249 258 248 257 272 249 227 223 216 220 212 212 202 197 189 232 179 201 238 270 271 276 263 203 238 231 240 288 273 278 303 295 286 292 283 289 288
232 230 230 235 238 230 233 235 247 251 244 245 246 223 206 209 211 217 220 224 215 213 191 213 259 255 258 245 252 183 202 230 272 259 215 253 274 319 292 306 301 304 303 297 291
230 227 225 231 231 226 231 237 245 242 244 234 228 207 190 205 219 212 219 220 210 217 215 205 215 199 221 222 232 207 233 217 253 306 272 245 275 294 276 266 281 287 294 285 283
228 225 226 230 224 223 228 233 228 222 209 235 211 209 201 205 213 206 208 203 197 230 231 259 233 221 257 228 230 224 232 239 246 262 268 264 278 254 261 287 286 285 280 282 285
224 223 223 224 220 220 224 226 216 220 221 205 207 209 186 227 211 206 196 206 216 226 226 233 291 264 218 229 242 242 252 258 257 263 266 265 228 252 268 279 279 283 282 282 284
219 220 221 222 219 220 220 213 212 217 208 201 188 192 179 209 215 193 203 206 225 218 218 223 225 232 234 241 241 255 258 260 253 250 261 262 235 249 259 263 272 283 288 287 289
218 222 221 219 219 218 213 208 211 214 197 194 196 192 194 184 216 201 204 215 218 217 218 226 233 244 249 270 256 256 251 256 256 255 259 257 253 259 263 266 273 279 284 290 293
214 218 218 220 217 213 209 206 211 203 196 194 196 204 206 205 204 208 217 222 221 225 231 240 239 249 253 256 258 272 249 248 246 255 254 256 255 284 288 271 269 273 287 292 294
210 215 220 215 214 214 205 203 208 202 197 192 198 204 205 207 214 224 233 236 234 237 238 243 248 250 252 238 251 241 245 239 247 253 252 252 260 259 263 276 289 296 293 294 297
202 213 215 215 212 212 208 203 206 202 198 196 197 201 205 216 227 237 242 243 244 240 242 244 244 247 251 248 249 242 239 241 250 253 259 260 264 271 269 275 282 289 292 295 297
193 208 211 215 205 207 206 206 205 195 199 201 200 202 210 222 228 239 237 243 248 237 239 237 241 242 240 239 242 246 248 250 255 256 262 264 266 266 275 281 290 291 289 292 297